Flag for Germany Weather past 2 weeks in Hannover, Lower Saxony, Germany

Now
43 °F

Passing clouds.


Feels Like: 35 °F
Forecast: 40 / 46 °F
Wind: 15 mph from West

Location: Hannover

Current Time: Dec 20, 2014 at 2:36:10 AM

Latest Report: Dec 20, 2014 at 2:20 AM


Visibility: N/A

Pressure: 29.95 "Hg

Humidity: 81%

Dew point: 37 °F

Location of HannoverLocation

Historic Weather in Hannover — Graph

°F

Hannover temperature yesterday

Maximum temperature yesterday: 54 °F (at 6:20 AM)
Minimum temperature yesterday: 43 °F (at 5:50 PM)
Average temperature yesterday: 48 °F

Past Weeks' High & Low Weather Summary

 TemperatureHumidityPressure
High54 °F (Dec 18, 2:20 PM)100% (Dec 5, 2:50 AM)30.36 "Hg (Dec 5, 2:50 AM)
Low32 °F (Dec 7, 5:20 AM)66% (Dec 7, 4:20 PM)29.33 "Hg (Dec 12, 12:50 PM)
Average41 °F87%29.88 "Hg
* Reported Dec 5 1:20 AM — Dec 20 1:20 AM, Hannover, Weather by CustomWeather, © 2014

Note: Actual official high and low records may vary slightly from our data, if they occured in-between our weather recording intervals... More about our weather records

Advertising

Hannover weather history for previous 24 hours

 ConditionsComfort  
Time TempWeatherWind HumidityBarometerVisibility
1:20 AM
Dec 20
43 °FPassing clouds.17 mph81%29.95 "HgN/A
12:50 AM43 °FPassing clouds.16 mph81%29.92 "HgN/A
12:20 AM43 °FPassing clouds.15 mph81%29.92 "HgN/A
11:50 PM
Dec 19
43 °FPassing clouds.16 mph81%29.92 "HgN/A
11:20 PM43 °FPassing clouds.14 mph81%29.92 "HgN/A
10:50 PM43 °FPassing clouds.14 mph81%29.92 "HgN/A
10:20 PM43 °FPassing clouds.16 mph81%29.92 "HgN/A
9:50 PM43 °FPassing clouds.16 mph76%29.92 "HgN/A
9:20 PM43 °FPassing clouds.17 mph81%29.89 "HgN/A
8:50 PM43 °FPassing clouds.15 mph76%29.89 "HgN/A
8:20 PM43 °FPassing clouds.14 mph76%29.89 "HgN/A
7:50 PM43 °FPassing clouds.14 mph81%29.86 "HgN/A
7:20 PM45 °FPassing clouds.15 mph76%29.86 "HgN/A
6:50 PM45 °FPassing clouds.15 mph76%29.83 "HgN/A
6:20 PM45 °FPassing clouds.16 mph76%29.83 "HgN/A
5:50 PM43 °FClear.13 mph81%29.83 "Hg10 mi
5:20 PM45 °FPassing clouds.13 mph76%29.80 "HgN/A
4:50 PM45 °FPassing clouds.15 mph76%29.80 "HgN/A
4:20 PM45 °FPartly cloudy.15 mph81%29.77 "HgN/A
3:50 PM46 °FPartly sunny.13 mph87%29.77 "HgN/A
3:20 PM46 °FPartly sunny.20 mph87%29.74 "HgN/A
2:50 PM46 °FPartly sunny.15 mph93%29.74 "HgN/A
2:20 PM48 °FPartly sunny.17 mph87%29.71 "HgN/A
1:50 PM48 °FMostly cloudy.17 mph94%29.71 "HgN/A
1:20 PM48 °FLight rain. Overcast.17 mph94%29.71 "HgN/A
12:50 PM48 °FLight rain. Overcast.10 mph94%29.71 "HgN/A
12:20 PM50 °FLight rain. Mostly cloudy.17 mph88%29.71 "HgN/A
11:50 AM52 °FLight rain. Broken clouds.21 mph94%29.68 "HgN/A
11:20 AM52 °FLight rain. Broken clouds.20 mph94%29.68 "HgN/A
10:50 AM52 °FRain. Broken clouds.21 mph94%29.68 "HgN/A
10:20 AM52 °FLight rain. Broken clouds.21 mph94%29.68 "HgN/A
9:50 AM52 °FLight rain. Broken clouds.20 mph94%29.68 "HgN/A
9:20 AM52 °FLight rain. Broken clouds.16 mph94%29.68 "HgN/A
8:50 AM52 °FLight rain. Broken clouds.15 mph94%29.68 "HgN/A
8:20 AM52 °FLight rain. Passing clouds.16 mph94%29.68 "Hg4 mi
7:50 AM52 °FLight rain. Passing clouds.15 mph94%29.68 "Hg3 mi
7:20 AM52 °FLight rain. Passing clouds.14 mph94%29.71 "HgN/A
6:50 AM52 °FLight rain. Passing clouds.15 mph94%29.71 "Hg4 mi
6:20 AM54 °FLight rain. Fog.17 mph88%29.71 "Hg3 mi
5:50 AM52 °FLight rain. Fog.17 mph94%29.74 "Hg2 mi
5:20 AM52 °FLight rain. Fog.18 mph94%29.74 "Hg2 mi
4:20 AM52 °FLight rain. Fog.16 mph100%29.74 "Hg2 mi
3:50 AM52 °FLight rain. Fog.17 mph100%29.74 "Hg2 mi
3:20 AM52 °FLight rain. Fog.17 mph100%29.74 "Hg2 mi
2:50 AM52 °FLight rain. Fog.18 mph100%29.77 "Hg2 mi
2:20 AM52 °FLight rain. Fog.17 mph100%29.74 "Hg2 mi
Weather by CustomWeather, © 2014

See weather overviewHow to use our weather pages